RH
25 20 16 14 13 16 14 16 15 14 15 14 15 16 22 32 45 51 46 44 51 54 54 57 60 59 61 70 82 92 98 101 102 101 92 83 82 79 72 64 63 67 64 58 51 46 48 54 61 59 51 49 54 59 56 53 57 57 55 56 58 55
23 16 15 13 12 15 14 15 15 14 14 13 15 18 25 34 43 45 38 38 53 60 59 65 66 62 74 92 98 100 104 104 102 103 89 69 64 61 53 48 53 65 69 64 53 46 50 57 59 53 46 45 51 55 51 48 54 61 58 57 60 59
18 14 13 14 14 14 15 14 14 14 13 14 16 19 23 26 31 33 27 30 52 65 66 72 69 69 88 97 93 94 100 101 101 99 79 59 57 57 53 52 60 69 67 58 48 44 44 47 47 44 44 46 48 46 44 47 54 61 58 58 63 64
13 14 14 13 15 14 14 14 13 14 14 15 15 16 19 20 23 27 22 26 48 67 75 78 75 81 94 92 85 84 85 86 89 87 70 56 54 52 52 57 64 60 52 45 42 42 41 40 38 34 33 35 40 41 41 45 55 60 58 58 62 66
14 14 16 14 16 16 14 15 14 14 14 14 15 17 20 20 22 22 20 26 43 67 83 84 81 82 83 81 76 68 65 68 76 79 66 53 48 45 46 48 49 43 40 42 43 45 44 43 43 40 34 29 32 37 41 45 56 64 59 55 55 60
20 14 15 16 15 16 15 16 16 15 14 14 19 29 39 43 45 45 45 47 54 74 90 90 84 77 71 68 61 52 52 57 66 70 57 47 44 41 40 38 38 38 39 42 40 39 37 37 41 42 40 35 30 31 36 40 51 64 63 54 52 56
20 17 16 17 15 16 16 15 15 12 14 25 39 56 74 84 87 88 88 85 81 85 93 91 84 73 65 59 50 43 41 41 45 49 45 43 42 39 39 37 36 38 38 39 37 36 34 30 31 35 39 38 34 35 36 34 40 52 53 49 49 51
20 19 12 13 13 14 13 13 20 26 39 59 74 85 96 100 100 101 101 102 99 93 91 87 81 72 65 57 46 41 36 32 33 35 38 38 36 38 40 36 35 37 36 37 37 37 36 31 26 27 31 32 37 45 44 39 41 45 44 46 50 49
46 51 43 35 24 23 32 45 63 75 83 91 96 98 101 101 99 100 97 96 101 100 93 87 84 77 66 54 45 41 36 35 38 38 39 36 33 37 37 34 35 35 33 36 38 39 38 35 30 25 23 23 29 39 42 40 38 42 48 49 52 53
82 93 93 84 68 65 76 89 96 96 97 99 101 100 98 100 100 100 95 93 99 101 98 94 94 85 66 53 47 44 40 44 51 47 45 41 35 35 34 34 36 33 33 37 40 42 41 38 35 29 24 21 20 24 28 30 26 31 47 49 47 55
97 99 103 103 99 96 93 98 98 94 99 100 102 103 97 97 99 100 100 98 95 94 99 100 100 91 75 65 58 50 43 49 60 57 52 45 37 35 36 36 37 36 37 40 43 44 44 41 37 32 27 24 21 20 20 21 21 22 34 38 36 48
99 95 101 101 102 102 93 96 101 100 102 99 101 106 98 94 96 97 101 104 96 94 100 101 102 95 85 82 73 59 48 48 57 60 59 50 41 40 39 40 41 42 43 45 48 47 46 44 40 34 28 26 23 23 22 20 22 21 23 27 27 35
97 92 100 101 100 102 95 95 100 100 101 99 100 103 97 95 96 90 93 103 102 100 100 100 103 97 94 96 82 67 59 52 53 64 70 56 45 46 45 46 46 47 48 50 52 50 49 48 43 37 30 27 25 23 24 23 23 23 22 24 24 27
95 90 96 101 100 100 100 97 98 100 101 100 99 100 99 96 95 89 90 99 101 103 100 98 104 100 99 101 89 80 76 65 56 63 70 57 48 50 49 49 48 48 50 52 54 52 51 50 46 40 33 29 27 26 25 25 25 25 24 23 23 25
88 90 94 99 100 99 102 98 96 100 100 101 99 100 100 90 88 90 89 94 97 102 102 99 102 100 100 101 98 95 91 78 62 58 60 53 49 51 51 49 46 48 52 54 56 55 54 53 48 42 36 30 28 28 27 26 26 26 27 26 25 24
80 89 95 98 101 100 99 96 97 99 99 102 99 100 102 88 86 94 88 89 97 100 102 102 99 97 98 101 101 100 96 86 70 60 56 52 51 51 50 46 46 51 55 56 56 57 57 55 50 44 38 32 30 30 29 27 27 27 29 29 29 26
86 92 96 93 97 100 96 92 93 95 96 102 99 99 102 89 90 102 92 88 99 102 101 102 99 94 98 101 101 101 97 88 73 61 55 53 50 48 48 49 51 54 56 56 56 58 59 56 50 42 36 33 31 31 29 28 27 28 31 32 32 30
97 99 98 91 95 102 94 79 81 92 96 100 101 100 102 96 90 91 90 93 99 100 101 102 98 94 96 97 99 101 97 86 72 61 55 52 49 48 53 56 55 56 57 57 58 61 61 55 45 35 32 32 32 32 30 28 28 29 32 35 35 34
101 102 98 95 98 104 93 70 69 91 99 99 101 94 94 104 91 72 78 95 99 100 103 101 95 94 91 90 98 101 95 83 69 59 54 53 53 57 63 63 60 59 59 59 61 63 60 51 39 30 29 31 32 32 30 28 28 30 32 35 37 38
101 101 97 97 100 103 98 76 67 87 100 96 94 89 89 103 99 82 83 95 100 101 101 95 95 97 90 89 99 101 94 81 68 61 58 59 63 69 74 73 67 63 62 62 64 64 57 44 32 28 28 31 32 32 30 28 28 31 33 36 39 41
101 101 98 97 100 101 102 91 75 86 103 100 96 97 97 100 101 99 98 100 101 99 95 94 97 97 91 95 102 99 94 81 68 67 68 69 74 80 83 78 71 67 66 66 66 64 52 36 28 28 30 32 33 31 30 28 28 31 33 36 40 43
100 101 98 95 97 99 102 98 84 87 103 104 98 100 100 99 100 102 103 102 102 97 96 98 97 94 94 100 101 98 95 81 71 76 81 82 83 85 85 80 75 74 73 71 68 59 42 30 29 31 34 35 33 30 29 28 28 31 34 35 38 43
100 101 99 93 94 98 100 100 96 97 106 104 99 100 100 100 99 100 101 99 98 97 99 100 97 97 99 101 100 97 92 81 80 90 94 91 89 89 89 86 84 81 80 74 61 45 31 29 33 35 37 37 33 30 28 28 28 29 32 34 36 40
101 100 101 98 97 100 100 100 101 102 106 105 101 100 100 100 100 98 98 96 96 98 101 100 99 101 101 100 100 96 88 81 86 96 97 96 97 98 98 95 92 87 78 62 43 32 29 33 38 39 38 35 32 31 29 29 30 30 31 33 34 37
101 100 100 101 99 100 102 103 102 100 101 102 101 101 101 101 100 97 96 97 99 100 100 99 100 101 100 100 98 91 84 84 91 98 99 101 103 103 104 100 90 76 58 41 32 30 32 37 41 40 37 34 31 30 30 31 33 34 33 33 34 35
101 101 100 102 101 100 102 103 102 101 100 100 101 101 101 101 101 100 99 98 97 98 99 100 100 100 100 99 94 88 87 91 98 102 104 106 105 103 98 84 64 47 36 32 33 35 38 41 41 38 34 31 29 29 30 31 33 36 37 36 35 35
101 101 100 101 101 100 101 101 100 97 96 99 101 102 101 100 100 100 99 97 96 97 99 100 100 99 99 97 92 89 89 94 99 101 103 104 97 87 70 51 38 33 33 36 38 41 43 41 38 35 32 29 28 28 28 30 33 36 40 43 41 38
100 100 100 101 100 100 100 100 100 96 92 91 95 100 102 102 101 98 94 90 90 95 98 100 101 100 100 99 96 95 93 97 101 96 93 88 74 61 47 37 35 36 39 42 44 46 44 40 37 33 31 29 29 28 28 29 31 33 37 43 47 45
100 100 100 100 100 100 100 100 101 100 98 95 92 94 95 99 101 100 97 91 89 93 93 93 97 99 101 102 102 102 98 95 93 88 82 71 57 47 40 37 39 41 45 48 49 47 43 40 36 34 32 30 30 30 30 30 30 31 33 36 41 44
99 100 101 101 102 101 101 100 100 99 100 101 99 96 92 92 96 100 102 97 89 85 82 85 94 100 103 104 105 103 94 88 86 82 71 58 47 41 38 40 44 48 50 50 48 44 41 39 36 35 34 33 34 34 33 32 32 32 32 33 35 38
79 86 91 93 95 98 101 102 103 102 101 102 103 103 98 92 95 101 104 103 98 93 93 97 101 104 106 107 105 98 90 87 81 69 54 44 40 40 42 46 50 51 51 48 44 41 40 39 37 36 36 37 38 38 37 37 36 35 34 34 35 36
51 55 60 62 63 66 74 81 86 90 94 97 99 101 101 98 99 102 103 105 105 103 103 103 102 103 103 102 99 94 89 79 63 48 41 40 42 44 48 51 52 51 48 44 41 41 40 38 37 38 39 40 41 41 41 41 40 40 38 37 37 37
49 40 39 39 38 38 41 46 50 56 63 74 88 98 100 100 102 103 103 107 106 104 104 101 101 101 99 96 91 83 70 54 43 40 41 44 46 49 52 52 50 48 45 42 41 40 40 39 40 42 43 44 45 44 44 44 43 41 39 38 37 37
65 52 44 37 33 33 33 34 34 36 41 53 76 98 104 103 104 103 103 105 104 104 104 102 100 96 89 81 69 56 45 40 40 43 45 48 51 53 52 49 47 45 43 42 41 41 42 43 45 46 48 48 47 47 45 44 41 39 38 38 37 37
75 70 62 49 40 34 33 36 36 36 36 39 50 67 80 88 94 96 97 98 96 94 91 85 78 70 60 51 45 41 41 43 45 47 50 52 52 51 49 47 45 44 43 42 42 45 46 48 49 49 49 49 47 46 43 41 38 37 38 37 37 36
68 67 62 57 56 50 42 40 41 41 42 41 40 40 44 50 55 59 61 61 60 58 53 49 46 42 40 40 41 43 45 48 51 53 53 52 50 48 46 45 45 44 44 45 46 49 50 50 50 49 48 47 45 43 39 37 36 36 38 37 36 35
48 49 51 58 66 64 55 49 47 46 44 43 44 42 40 38 37 37 38 38 39 39 40 41 41 42 42 43 45 47 51 53 53 51 49 48 47 46 45 45 46 46 48 49 50 51 50 50 49 48 47 45 42 40 37 37 37 38 39 38 35 34
Wind_Speed
38 39 39 39 38 36 34 33 33 32 31 29 28 27 26 26 26 27 26 25 24 23 22 22 21 20 20 19 19 19 19 20 22 24 24 24 23 24 26 27 29 31 33 32 32 34 35 34 33 34 37 39 38 37 38 39 39 39 38 38 38 38
39 40 40 39 38 36 35 34 33 32 31 30 28 27 26 26 27 27 26 25 23 22 21 20 19 18 18 18 20 21 21 21 23 24 25 26 27 29 30 31 31 31 33 33 34 36 36 36 36 39 42 42 41 40 41 41 40 40 40 40 40 41
40 41 40 39 38 36 35 34 33 32 31 30 29 28 27 27 27 27 26 24 22 21 20 19 18 17 17 18 20 23 23 24 24 24 25 28 29 31 32 31 31 32 34 36 37 38 39 41 42 44 45 44 43 43 42 41 40 41 42 41 42 42
41 40 39 39 37 36 35 35 34 33 32 30 29 28 28 27 27 26 25 24 22 21 19 17 16 16 17 18 20 23 24 25 26 26 26 29 31 32 32 32 32 34 36 37 39 40 42 43 44 45 46 45 44 43 42 41 40 42 42 41 41 43
39 39 38 37 37 36 35 35 34 33 31 29 28 28 27 26 26 26 25 24 23 22 18 15 14 15 17 19 21 23 24 25 27 26 28 32 34 33 33 32 33 35 36 39 41 43 44 44 45 46 46 46 44 43 43 42 41 42 42 42 42 42
37 37 37 36 36 35 35 35 34 32 30 28 27 25 24 24 25 25 25 24 23 21 16 14 15 16 19 21 23 24 24 26 28 28 31 34 34 34 32 30 32 34 36 40 43 45 46 47 47 48 48 47 46 45 43 42 42 42 43 45 46 45
37 36 36 36 36 36 36 34 32 30 28 26 23 20 19 20 23 24 24 24 22 18 14 14 16 19 22 24 24 24 26 28 30 31 32 33 33 33 29 28 32 35 38 41 43 45 47 48 48 48 48 48 47 45 43 42 42 43 45 47 47 46
36 36 36 36 36 36 34 32 31 29 25 22 18 17 18 20 23 24 25 24 20 15 13 15 18 21 24 25 25 26 28 31 32 33 32 31 31 29 26 28 33 37 40 42 44 45 47 49 49 48 48 48 47 44 42 41 42 44 45 45 46 44
33 33 35 36 35 34 32 29 25 20 17 17 18 19 20 21 23 24 26 26 21 16 14 16 20 23 25 25 26 27 29 32 31 30 28 29 29 27 27 31 36 40 44 45 45 47 49 49 49 48 47 47 46 44 43 43 45 45 43 43 44 44
34 34 33 33 32 29 24 18 13 12 13 17 21 20 17 18 19 22 27 27 23 20 17 18 22 25 26 27 28 28 30 32 31 29 27 29 31 31 32 34 39 44 47 48 48 49 51 51 50 49 48 47 46 45 45 45 45 45 43 43 43 43
36 34 32 30 25 17 11 9 11 16 19 21 20 16 13 11 10 16 24 26 27 27 23 22 24 26 28 30 29 28 31 32 31 31 30 31 33 35 36 38 42 46 49 51 51 52 54 54 53 51 50 49 48 47 46 45 44 43 43 44 44 42
32 30 29 26 18 10 9 14 20 23 24 21 16 13 11 9 8 8 17 25 31 30 28 26 26 29 33 33 30 30 32 32 32 33 32 33 35 37 39 42 45 49 52 53 53 54 56 57 55 52 51 49 49 49 48 46 44 42 42 43 42 41
28 27 28 25 21 18 19 24 27 26 24 22 16 11 11 11 9 6 7 19 30 31 32 32 31 33 36 34 31 33 36 35 34 34 34 34 37 40 42 44 47 51 54 55 55 55 57 59 57 54 52 50 49 49 48 47 45 43 42 41 41 40
29 26 29 31 31 31 30 29 29 27 24 23 18 11 11 10 9 8 7 11 22 28 33 35 35 36 38 36 34 37 40 39 37 36 35 36 39 42 45 46 50 54 57 57 56 57 60 61 60 57 55 52 51 50 49 48 46 44 43 41 40 40
34 30 32 34 35 33 31 27 26 26 24 23 21 17 15 14 13 13 11 12 17 24 30 33 36 37 40 41 39 40 44 43 41 39 38 39 42 45 47 49 53 58 59 59 58 59 62 64 63 61 58 55 53 52 51 50 48 47 45 42 40 39
40 39 37 36 36 33 28 26 26 26 25 24 24 21 18 19 18 16 14 14 17 27 34 36 39 40 43 46 44 44 47 47 45 42 42 43 45 48 50 53 57 60 60 60 60 61 64 66 65 64 61 58 56 55 53 52 50 48 46 44 41 39
43 45 41 37 37 34 30 29 28 26 26 25 25 23 20 23 21 19 20 18 20 31 37 37 40 43 46 49 48 48 50 51 49 47 46 46 48 51 55 57 60 61 62 61 62 64 67 68 67 66 63 61 59 57 56 53 51 48 46 44 42 40
43 43 41 37 36 35 33 32 29 27 26 25 26 26 24 26 27 24 24 22 25 34 38 39 44 46 48 51 52 53 54 54 52 50 48 49 53 57 59 60 61 63 63 63 65 68 70 70 69 68 65 63 61 59 57 55 52 48 46 44 42 40
43 41 38 37 36 34 33 33 30 28 27 28 29 31 30 30 35 33 29 26 29 36 40 45 48 48 50 53 55 56 57 57 54 51 52 55 59 61 61 62 63 64 64 66 69 71 73 72 71 69 67 65 63 61 59 56 53 49 46 44 42 40
43 41 38 36 36 33 32 32 31 30 31 32 32 32 31 32 38 38 35 34 37 41 44 47 48 50 53 55 57 59 59 58 55 55 58 60 62 62 62 63 64 65 67 69 72 74 75 74 73 70 69 66 64 63 60 57 53 49 46 44 41 40
44 43 39 37 38 37 35 34 33 34 35 34 31 29 29 31 37 37 36 39 44 46 47 48 50 54 56 58 59 60 61 59 58 60 62 62 63 63 63 64 66 68 71 73 74 76 76 75 73 71 70 68 66 63 60 57 53 49 47 44 41 40
45 45 42 39 39 40 39 37 36 37 37 35 32 30 29 31 36 39 39 42 45 47 48 52 55 58 60 62 62 62 62 61 61 63 63 63 64 64 65 67 70 72 74 75 77 78 78 75 72 71 71 70 68 65 60 56 53 49 47 44 42 41
45 45 45 43 42 42 41 39 38 37 38 36 33 32 33 33 35 39 41 42 45 48 52 55 58 61 63 64 64 64 64 63 63 64 64 64 66 67 69 71 73 74 76 78 79 79 77 74 72 71 70 69 67 65 61 57 53 49 46 45 43 42
46 45 46 45 43 43 42 41 40 40 40 40 37 36 36 37 38 39 41 43 47 51 55 57 60 63 65 65 65 65 64 64 65 66 66 68 69 71 72 74 75 77 79 81 81 79 76 73 72 71 70 68 65 62 59 56 53 50 47 45 43 42
47 47 47 45 43 42 42 42 42 42 42 42 40 39 38 39 40 41 43 46 50 53 56 59 62 64 65 66 66 66 66 66 68 69 70 72 73 74 75 76 79 81 82 82 81 78 76 74 72 71 69 66 63 59 57 54 53 51 49 45 44 43
49 48 48 48 45 42 41 41 42 41 41 41 41 40 41 41 42 44 47 50 52 55 58 60 62 65 66 67 67 67 67 69 70 72 74 75 75 76 78 80 82 82 82 81 80 78 77 75 74 71 68 65 61 57 55 53 50 50 50 48 45 44
51 51 50 49 48 44 42 42 41 41 41 42 43 44 45 46 48 50 51 53 55 57 59 62 65 67 68 69 69 69 70 72 74 75 76 77 78 80 82 82 82 82 80 80 79 79 78 77 75 72 68 65 61 57 54 51 48 46 48 50 50 47
55 54 52 51 51 48 47 45 44 43 43 44 46 47 49 51 53 55 56 57 59 61 63 66 68 70 72 73 74 74 75 77 78 78 79 81 82 83 83 83 82 81 80 80 80 79 78 77 75 72 69 65 62 58 55 51 48 46 44 46 50 51
57 56 55 54 54 55 54 54 53 52 52 52 52 52 53 55 57 58 59 60 62 64 67 69 72 75 77 78 79 79 80 81 82 82 83 84 85 85 84 83 82 81 80 80 79 78 76 74 73 70 68 66 63 60 57 54 51 48 46 45 47 50
56 57 57 57 57 58 60 61 60 60 60 59 57 57 57 58 60 61 62 63 65 68 70 73 76 79 81 82 82 82 83 84 85 86 86 86 85 85 84 83 81 81 80 79 77 75 73 71 70 68 66 65 63 61 59 57 55 53 51 49 49 50
53 55 56 57 57 58 59 61 62 63 63 62 61 60 60 60 62 64 65 67 69 72 74 77 79 81 83 83 84 85 86 87 87 87 87 86 85 84 83 82 81 80 79 77 75 73 71 69 68 66 64 63 62 61 60 59 59 58 57 56 55 55
49 51 52 53 54 54 55 57 59 61 62 62 62 61 61 62 63 65 67 70 72 75 77 79 81 83 83 84 85 86 87 87 87 87 86 85 84 83 82 81 80 79 77 75 73 71 70 68 67 65 64 62 62 61 61 61 61 61 61 60 60 59
46 48 49 50 51 51 51 51 53 55 57 59 60 60 61 62 64 67 69 72 74 77 79 81 82 83 85 85 86 86 86 86 86 85 85 84 83 82 81 80 79 77 75 73 72 71 69 68 67 65 64 63 63 63 63 63 64 64 63 63 62 61
45 45 46 48 49 50 50 49 49 50 52 55 57 60 62 64 66 68 71 73 76 78 80 82 83 84 85 86 86 85 85 85 84 84 84 83 82 81 79 78 76 74 73 72 71 70 69 68 66 66 65 65 65 65 65 66 66 66 66 65 64 62
46 46 46 48 49 50 51 51 51 50 51 53 56 59 62 65 68 71 73 76 78 80 81 83 83 84 84 84 84 84 84 83 83 83 82 81 79 78 76 75 74 73 72 71 70 70 69 68 67 67 67 67 67 68 68 69 69 69 68 67 66 64
48 48 50 51 52 53 53 54 55 54 54 55 56 58 60 63 66 69 72 74 76 78 79 80 81 81 82 82 82 82 82 81 81 80 78 77 76 75 74 73 73 72 72 71 70 69 69 69 69 69 69 70 70 71 71 71 71 70 70 69 68 66
52 53 53 54 54 55 56 57 58 58 59 59 60 61 62 64 65 67 70 72 73 75 76 78 79 79 80 80 80 80 79 78 77 76 75 74 74 73 73 73 72 72 71 71 70 70 70 71 71 71 72 73 73 74 74 73 73 72 72 71 70 68
Wind_Direction
299 299 297 296 295 294 293 293 292 293 294 295 296 295 296 298 297 296 298 300 301 303 306 309 311 313 315 316 319 322 322 321 323 325 325 322 320 319 318 315 312 310 313 315 317 319 318 316 312 311 311 311 308 306 307 307 305 303 303 301 298 298
298 297 296 295 294 293 292 292 292 292 294 293 292 293 295 296 296 297 299 301 303 303 305 309 310 314 318 318 322 326 324 320 321 322 323 322 320 318 317 315 312 311 313 316 319 320 318 315 311 310 311 309 305 303 304 305 303 301 300 299 297 296
298 297 295 295 294 292 291 291 291 292 291 291 292 296 297 297 297 297 298 301 302 302 304 307 308 315 319 317 322 326 324 320 320 319 320 323 323 320 319 317 315 314 316 319 321 320 318 315 312 311 311 309 306 303 303 303 301 300 299 298 297 296
298 297 295 295 293 291 291 290 289 289 290 293 297 299 299 298 297 295 297 299 301 302 304 304 307 316 317 315 319 321 318 315 315 314 317 322 322 320 320 319 318 319 321 324 325 324 322 320 318 316 313 311 308 305 304 304 302 300 299 298 298 298
297 296 295 293 291 289 288 287 287 289 293 297 299 300 300 300 299 298 299 301 303 303 302 300 305 314 314 313 315 314 311 310 310 309 313 317 319 321 321 321 323 325 328 329 329 327 326 324 322 321 318 315 311 307 306 304 303 301 300 300 301 301
296 294 292 290 288 287 285 286 288 291 294 295 296 297 301 304 305 304 305 305 304 301 298 298 302 309 311 310 311 311 309 308 307 305 309 313 316 321 322 325 329 329 330 331 330 329 328 325 321 319 319 317 314 310 306 304 303 300 300 301 301 301
297 293 290 287 285 283 284 286 288 289 290 290 291 295 304 316 319 316 313 309 302 295 293 298 301 306 309 308 311 311 312 313 310 306 308 311 316 321 323 327 330 330 331 332 333 333 332 330 325 321 320 319 317 313 310 307 304 301 300 300 299 299
299 294 291 288 285 284 286 289 290 291 291 292 293 300 311 328 336 331 324 314 301 289 288 297 304 309 309 309 311 313 316 318 315 310 309 312 316 318 320 322 326 330 332 333 335 335 335 333 330 325 321 319 317 315 313 311 308 305 302 300 300 299
300 304 303 297 294 293 294 297 300 302 304 304 305 308 313 327 338 334 328 318 300 286 288 298 307 312 313 311 313 315 319 322 320 317 315 318 320 316 312 314 322 329 332 333 334 335 335 334 332 329 324 320 316 313 311 309 308 307 304 301 301 300
298 307 312 307 302 299 301 307 315 316 310 309 308 309 317 329 334 330 326 319 303 290 286 297 308 314 316 314 314 315 321 325 324 321 318 319 322 318 313 313 320 327 330 331 332 332 334 334 333 331 328 324 320 315 311 307 305 304 301 300 299 298
298 302 309 311 307 305 310 317 310 305 301 305 309 309 320 321 318 324 322 315 306 295 286 293 306 315 318 315 313 315 321 325 321 318 315 315 318 318 316 316 321 326 328 329 329 330 332 333 332 331 329 326 324 321 317 312 308 303 298 297 296 293
298 300 304 306 303 296 296 295 296 301 299 300 304 303 305 281 257 302 316 310 305 295 286 290 301 313 318 314 312 316 321 321 317 314 311 312 315 316 317 317 321 325 327 327 327 328 331 332 331 330 329 327 324 322 320 316 312 308 302 298 296 292
289 294 296 294 289 281 283 288 292 298 296 293 295 291 287 276 259 258 288 301 302 292 284 285 292 308 316 313 313 318 321 320 316 314 310 310 313 315 317 318 321 324 325 325 325 326 329 331 330 329 328 326 324 322 320 317 314 311 307 302 298 294
279 284 288 289 287 283 281 284 288 290 287 286 289 276 253 256 265 252 235 273 292 289 282 281 285 300 312 311 311 317 320 319 316 314 309 308 311 313 316 318 320 322 323 323 323 324 327 329 329 328 327 325 324 322 319 316 313 310 308 305 300 296
277 281 285 286 286 284 280 279 282 283 279 276 280 271 244 239 252 252 241 250 271 277 276 277 279 290 304 307 306 311 316 318 316 312 307 305 309 312 315 317 318 321 321 321 321 323 325 327 327 326 326 325 323 322 319 316 312 309 306 304 302 297
278 282 285 284 284 281 273 274 279 277 275 274 277 275 251 242 244 234 237 251 258 264 267 273 277 283 296 303 303 305 312 316 315 311 307 305 308 312 315 316 318 319 320 320 320 321 324 325 325 325 324 324 323 322 319 315 311 308 304 302 300 297
279 282 282 280 282 278 269 272 274 268 269 270 272 276 254 236 235 229 234 242 247 258 262 270 279 282 291 299 300 302 309 313 313 310 307 306 309 312 315 316 317 318 318 319 319 320 322 323 324 324 323 322 322 322 319 315 311 306 302 300 297 295
279 281 279 276 278 276 269 270 269 262 265 266 268 278 264 234 232 237 236 233 241 254 260 269 279 282 287 294 297 300 306 310 311 310 308 308 310 313 315 316 316 317 317 317 318 319 321 322 323 323 322 321 322 321 319 315 310 306 301 297 295 292
274 279 277 274 275 274 269 267 266 261 264 271 273 279 271 241 233 239 237 237 247 255 263 271 276 280 284 290 294 299 304 308 310 310 309 309 311 313 314 315 315 316 316 316 317 318 320 321 322 322 321 321 321 320 318 314 310 305 300 296 292 290
269 277 276 271 272 273 270 265 262 262 267 275 276 275 268 244 232 236 236 238 249 257 264 268 273 279 284 289 293 299 304 308 309 309 310 311 312 313 314 314 315 315 315 315 316 318 319 320 321 320 320 320 320 319 317 314 310 305 300 295 291 288
267 273 274 271 271 270 270 267 262 265 271 276 275 268 259 241 232 234 236 239 246 255 262 266 273 279 283 289 294 299 304 306 307 309 311 311 312 312 313 313 314 314 314 315 316 317 318 319 320 319 319 319 319 318 316 312 309 304 299 295 290 286
267 270 271 272 273 269 267 267 264 266 272 276 275 265 253 244 236 235 239 242 247 255 262 268 273 277 283 291 296 300 304 305 307 309 310 311 311 311 312 312 313 313 313 314 315 316 317 318 318 318 318 318 318 317 314 311 308 304 299 295 291 286
266 268 270 272 275 273 268 264 262 264 270 273 274 265 253 248 244 241 245 250 254 260 264 269 272 276 284 291 296 299 302 304 307 309 309 310 310 310 311 311 312 312 312 313 314 315 316 317 317 317 317 317 317 316 314 311 308 304 300 296 292 288
264 266 269 273 275 276 271 264 261 264 268 271 273 268 257 252 252 251 253 256 259 263 266 270 273 277 285 291 296 299 301 303 305 307 307 308 309 309 310 310 311 311 312 313 313 314 315 315 315 315 316 315 315 314 312 310 308 304 300 297 294 290
262 263 266 271 274 274 272 267 263 266 270 272 271 265 258 255 254 254 256 258 262 265 268 271 274 280 286 291 295 298 300 302 304 305 307 308 308 309 309 310 310 311 312 312 312 313 313 314 314 314 314 314 313 312 310 308 306 304 302 298 295 292
261 262 264 267 270 271 270 267 265 267 271 273 269 261 255 255 255 255 256 258 263 266 269 272 276 282 287 291 294 297 299 302 304 305 306 307 308 308 309 309 310 310 311 311 311 312 312 312 312 312 312 311 311 309 308 306 305 303 302 300 297 294
260 263 264 265 266 267 267 266 265 266 269 272 269 261 256 256 258 259 258 259 262 266 269 273 278 283 287 291 294 296 298 301 303 304 306 307 307 307 308 308 309 310 310 310 311 311 311 312 311 311 311 310 309 308 306 305 303 301 300 300 298 296
260 262 264 264 264 264 265 265 266 267 270 272 272 268 263 261 262 263 262 262 263 266 270 274 279 283 288 291 293 295 298 300 302 303 304 305 306 306 307 308 308 309 309 310 310 311 311 311 311 311 310 310 309 307 306 304 302 299 298 297 297 297
260 262 263 263 264 265 266 266 267 269 270 273 274 274 271 269 269 269 267 266 266 268 272 275 279 283 288 291 293 295 297 299 300 302 303 304 305 305 306 307 307 308 309 309 310 310 311 310 310 310 310 310 309 307 306 304 301 299 297 294 294 295
260 262 262 263 265 267 268 268 269 271 273 275 276 276 275 274 272 272 271 270 270 270 272 274 278 282 286 289 291 293 295 297 299 301 302 303 304 304 305 306 307 307 308 309 309 309 309 309 309 309 309 309 307 307 305 304 302 300 298 296 294 293
262 263 264 265 267 268 269 270 271 273 275 277 278 278 277 276 273 272 271 271 271 271 272 275 278 282 285 288 290 292 294 296 298 299 301 302 303 304 305 305 306 307 308 308 308 308 308 308 308 308 307 306 306 305 304 304 303 302 301 300 298 297
265 266 267 268 269 270 272 273 274 275 276 277 278 279 278 276 275 273 272 272 272 273 276 278 281 283 286 288 290 292 294 296 297 299 300 302 303 304 304 305 306 307 307 307 307 308 308 307 307 306 306 305 304 303 303 303 302 302 301 300 300 298
267 268 268 270 271 272 274 275 275 276 277 278 278 278 277 276 274 273 273 273 274 276 278 280 282 284 286 288 290 292 294 296 298 299 300 301 303 304 305 305 306 306 307 307 307 307 307 306 306 305 304 304 303 303 302 302 301 301 300 299 298 297
271 271 271 273 275 276 277 278 278 277 276 276 275 275 274 274 274 274 274 275 276 277 279 281 283 285 287 289 291 293 295 296 298 299 300 302 303 304 304 305 306 306 306 307 307 306 306 306 305 304 303 303 302 302 302 301 300 299 299 298 296 295
275 275 276 277 279 280 280 281 280 279 277 276 274 273 273 272 272 273 274 275 276 278 280 282 284 286 288 290 292 294 295 297 298 300 301 302 303 304 304 305 305 306 306 306 306 306 305 305 304 303 302 302 301 301 301 300 300 299 298 297 295 294
276 276 278 279 280 280 280 280 280 279 278 277 276 275 275 274 274 275 275 277 278 280 282 284 286 288 289 291 293 295 296 298 299 301 302 303 303 304 304 305 305 305 305 305 305 305 304 303 303 302 302 301 301 301 300 300 299 298 298 297 295 294
276 277 278 279 280 281 281 281 281 280 280 279 279 279 279 279 279 279 280 281 282 283 285 286 288 289 291 292 294 296 298 299 301 302 302 303 303 304 304 304 305 305 305 305 304 304 303 303 303 302 302 302 301 301 301 301 300 299 299 298 296 295